Little Falls, MN

4:51 PM CDT on March 23, 2017 (GMT -0500)
Little Falls-Morrison County

Weather History for KLXL - January, 2013

Change the Weather History Date:

Wednesday, January 2, 2013

  Actual Average Record
Temperature  
Mean Temperature 19 °F -  
Max Temperature 21 °F 20 °F 42 °F (1997)
Min Temperature 15 °F 0 °F -35 °F (1979)
Degree Days  
Heating Degree Days 46    
Moisture  
Dew Point 15 °F    
Average Humidity 84    
Maximum Humidity 93    
Minimum Humidity 73    
Precipitation  
Precipitation 0.00 in - - ()
Sea Level Pressure  
Sea Level Pressure 29.94 in    
Wind  
Wind Speed 7 mph (SW)    
Max Wind Speed 12 mph    
Max Gust Speed -    
Visibility 7 miles    
Events Snow    
Averages and records for this station are not official NWS values.
T = Trace of Precipitation, MM = Missing Value Source: NWS Daily Summary

Daily Weather History Graph

Daily Weather History Graph

Search for Another Location

Airport or City:

Trip Planner

Search our weather history database for the weather conditions in past years. The results will help you decide how hot, cold, wet, or windy it might be!

Date:

Astronomy

Jan. 02, 2013 Rise Set
Actual Time 7:59 AM CST 4:44 PM CST
Civil Twilight 7:24 AM CST 5:18 PM CST
Nautical Twilight 6:47 AM CST 5:56 PM CST
Astronomical Twilight 6:10 AM CST 6:32 PM CST
Moon 10:37 PM CST (1/2) 10:23 AM CST (1/2)
Length of Visible Light 9h 53m
Length of Day
8h 45m
Waning Gibbous, 75% of the Moon is Illuminated
Jan 2
Waning Gibbous
Jan 4
Last Quarter
Jan 11
New
Jan 18
First Quarter
Jan 26
Full

Hourly Weather History & Observations

Time (CST) Temp. Windchill Dew Point Humidity Pressure Visibility Wind Dir Wind Speed Gust Speed Precip Events Conditions
12:13 AM 21.2 °F 11.7 °F 17.6 °F 86% 29.94 in 10.0 mi SSW 8.1 mph - N/A   Overcast
12:33 AM 21.2 °F 10.9 °F 17.6 °F 86% 29.94 in 10.0 mi SSW 9.2 mph - N/A   Overcast
12:53 AM 21.2 °F 11.7 °F 17.6 °F 86% 29.94 in 10.0 mi SSW 8.1 mph - N/A   Overcast
1:13 AM 21.2 °F 11.7 °F 17.6 °F 86% 29.92 in 10.0 mi SSW 8.1 mph - N/A   Overcast
1:33 AM 21.2 °F 14.9 °F 17.6 °F 86% 29.92 in 10.0 mi SSW 4.6 mph - N/A   Overcast
1:53 AM 21.2 °F 12.6 °F 17.6 °F 86% 29.92 in 10.0 mi SSW 6.9 mph - N/A   Overcast
2:13 AM 21.2 °F 11.7 °F 17.6 °F 86% 29.91 in 10.0 mi SSW 8.1 mph - N/A   Overcast
2:33 AM 21.2 °F 14.9 °F 17.6 °F 86% 29.91 in 10.0 mi SW 4.6 mph - N/A   Overcast
2:53 AM 21.2 °F 10.9 °F 17.6 °F 86% 29.91 in 10.0 mi SSW 9.2 mph - N/A   Overcast
3:13 AM 21.2 °F 14.9 °F 17.6 °F 86% 29.90 in 10.0 mi South 4.6 mph - N/A   Overcast
3:33 AM 21.2 °F 12.6 °F 17.6 °F 86% 29.90 in 10.0 mi SSW 6.9 mph - N/A   Overcast
3:53 AM 21.2 °F 10.1 °F 17.6 °F 86% 29.90 in 10.0 mi SSW 10.4 mph - N/A   Overcast
4:13 AM 21.2 °F 11.7 °F 17.6 °F 86% 29.90 in 10.0 mi SSW 8.1 mph - N/A   Overcast
4:33 AM 21.2 °F 11.7 °F 17.6 °F 86% 29.90 in 10.0 mi SSW 8.1 mph - N/A   Overcast
4:53 AM 19.4 °F 8.6 °F 15.8 °F 86% 29.90 in 7.0 mi SSW 9.2 mph - N/A   Overcast
5:14 AM 19.4 °F 8.6 °F 15.8 °F 86% 29.89 in 7.0 mi SSW 9.2 mph - N/A   Overcast
5:33 AM 19.4 °F 7.9 °F 15.8 °F 86% 29.89 in 7.0 mi SSW 10.4 mph - N/A   Overcast
5:53 AM 19.4 °F 9.5 °F 14.0 °F 80% 29.89 in 7.0 mi SSW 8.1 mph - N/A   Overcast
6:14 AM 17.6 °F 6.4 °F 14.0 °F 86% 29.89 in 7.0 mi SSW 9.2 mph - N/A   Overcast
6:33 AM 17.6 °F 6.4 °F 14.0 °F 86% 29.89 in 5.0 mi SW 9.2 mph - N/A   Overcast
6:53 AM 17.6 °F 8.2 °F 14.0 °F 86% 29.90 in 5.0 mi SW 6.9 mph - N/A   Overcast
7:14 AM 17.6 °F 8.2 °F 14.0 °F 86% 29.90 in 5.0 mi SSW 6.9 mph - N/A   Overcast
7:33 AM 17.6 °F 7.3 °F 14.0 °F 86% 29.90 in 5.0 mi South 8.1 mph - N/A   Overcast
7:53 AM 17.6 °F 9.3 °F 14.0 °F 86% 29.89 in 5.0 mi South 5.8 mph - N/A   Overcast
8:14 AM 17.6 °F 9.3 °F 14.0 °F 86% 29.89 in 5.0 mi South 5.8 mph - N/A Snow Light Snow
8:33 AM 17.6 °F 9.3 °F 14.0 °F 86% 29.89 in 4.0 mi South 5.8 mph - N/A Snow Light Snow
8:53 AM 17.6 °F 8.2 °F 14.0 °F 86% 29.90 in 3.0 mi SSE 6.9 mph - N/A Snow Light Snow
9:14 AM 17.6 °F 9.3 °F 14.0 °F 86% 29.91 in 4.0 mi South 5.8 mph - N/A   Overcast
9:33 AM 17.6 °F 10.7 °F 14.0 °F 86% 29.91 in 4.0 mi SSE 4.6 mph - N/A Snow Light Snow
9:53 AM 17.6 °F 9.3 °F 14.0 °F 86% 29.91 in 2.5 mi SSE 5.8 mph - N/A Snow Light Snow
10:14 AM 17.6 °F 8.2 °F 14.0 °F 86% 29.92 in 1.8 mi South 6.9 mph - N/A Snow Light Snow
10:33 AM 17.6 °F 9.3 °F 14.0 °F 86% 29.92 in 1.2 mi South 5.8 mph - N/A Snow Light Snow
10:53 AM 17.6 °F 8.2 °F 12.2 °F 79% 29.92 in 3.0 mi South 6.9 mph - N/A Snow Light Snow
11:13 AM 17.6 °F 9.3 °F 12.2 °F 79% 29.92 in 2.0 mi South 5.8 mph - N/A Snow Light Snow
11:33 AM 17.6 °F 9.3 °F 12.2 °F 79% 29.91 in 4.0 mi South 5.8 mph - N/A   Overcast
11:53 AM 17.6 °F 10.7 °F 14.0 °F 86% 29.91 in 4.0 mi South 4.6 mph - N/A   Overcast
12:13 PM 17.6 °F 12.3 °F 14.0 °F 86% 29.90 in 5.0 mi South 3.5 mph - N/A   Overcast
12:33 PM 17.6 °F 10.7 °F 14.0 °F 86% 29.90 in 5.0 mi South 4.6 mph - N/A   Overcast
12:53 PM 17.6 °F - 14.0 °F 86% 29.90 in 5.0 mi Calm Calm - N/A   Overcast
1:13 PM 19.4 °F 14.3 °F 14.0 °F 80% 29.90 in 5.0 mi SSW 3.5 mph - N/A   Overcast
1:33 PM 19.4 °F 14.3 °F 14.0 °F 80% 29.90 in 5.0 mi South 3.5 mph - N/A   Overcast
1:53 PM 19.4 °F 14.3 °F 14.0 °F 80% 29.91 in 5.0 mi SSW 3.5 mph - N/A   Overcast
2:13 PM 19.4 °F 14.3 °F 14.0 °F 80% 29.91 in 4.0 mi South 3.5 mph - N/A   Overcast
2:34 PM 19.4 °F 14.3 °F 15.8 °F 86% 29.92 in 4.0 mi South 3.5 mph - N/A   Overcast
2:53 PM 19.4 °F 12.8 °F 15.8 °F 86% 29.92 in 4.0 mi South 4.6 mph - N/A   Overcast
3:13 PM 19.4 °F - 15.8 °F 86% 29.93 in 4.0 mi Calm Calm - N/A   Overcast
3:34 PM 19.4 °F 14.3 °F 15.8 °F 86% 29.94 in 4.0 mi SSW 3.5 mph - N/A   Overcast
3:53 PM 19.4 °F 14.3 °F 15.8 °F 86% 29.94 in 5.0 mi South 3.5 mph - N/A   Overcast
4:13 PM 19.4 °F 14.3 °F 15.8 °F 86% 29.94 in 5.0 mi South 3.5 mph - N/A   Overcast
4:33 PM 19.4 °F - 15.8 °F 86% 29.95 in 7.0 mi Calm Calm - N/A   Overcast
5:13 PM 19.4 °F - 15.8 °F 86% 29.96 in 7.0 mi Calm Calm - N/A   Overcast
5:33 PM 19.4 °F - 15.8 °F 86% 29.96 in 7.0 mi Calm Calm - N/A   Overcast
5:53 PM 19.4 °F - 17.6 °F 93% 29.97 in 7.0 mi Calm Calm - N/A   Overcast
6:13 PM 19.4 °F - 17.6 °F 93% 29.98 in 7.0 mi Calm Calm - N/A   Overcast
6:33 PM 21.2 °F 14.9 °F 17.6 °F 86% 29.98 in 7.0 mi WNW 4.6 mph - N/A   Overcast
6:53 PM 21.2 °F 13.6 °F 17.6 °F 86% 29.99 in 10.0 mi NW 5.8 mph - N/A   Overcast
7:13 PM 21.2 °F 13.6 °F 15.8 °F 80% 30.00 in 10.0 mi WNW 5.8 mph - N/A   Overcast
7:33 PM 21.2 °F 11.7 °F 15.8 °F 80% 30.00 in 10.0 mi WNW 8.1 mph - N/A   Mostly Cloudy
7:53 PM 19.4 °F 7.9 °F 14.0 °F 80% 30.01 in 10.0 mi WNW 10.4 mph - N/A   Mostly Cloudy
8:14 PM 19.4 °F 7.9 °F 14.0 °F 80% 30.01 in 10.0 mi WNW 10.4 mph - N/A   Overcast
8:33 PM 19.4 °F 9.5 °F 14.0 °F 80% 30.02 in 10.0 mi WNW 8.1 mph - N/A   Overcast
8:53 PM 19.4 °F 9.5 °F 14.0 °F 80% 30.03 in 7.0 mi WNW 8.1 mph - N/A Snow Light Snow
9:14 PM 19.4 °F 9.5 °F 14.0 °F 80% 30.04 in 7.0 mi WNW 8.1 mph - N/A Snow Light Snow
9:33 PM 17.6 °F 8.2 °F 12.2 °F 79% 30.04 in 7.0 mi WNW 6.9 mph - N/A Snow Light Snow
9:54 PM 17.6 °F 8.2 °F 12.2 °F 79% 30.04 in 7.0 mi NW 6.9 mph - N/A Snow Light Snow
10:13 PM 17.6 °F 6.4 °F 12.2 °F 79% 30.05 in 10.0 mi WNW 9.2 mph - N/A   Overcast
10:33 PM 17.6 °F 8.2 °F 12.2 °F 79% 30.06 in 10.0 mi NW 6.9 mph - N/A   Overcast
10:54 PM 17.6 °F 6.4 °F 12.2 °F 79% 30.07 in 10.0 mi WNW 9.2 mph - N/A   Overcast
11:13 PM 17.6 °F 8.2 °F 12.2 °F 79% 30.08 in 10.0 mi WNW 6.9 mph - N/A   Mostly Cloudy
11:33 PM 17.6 °F 5.0 °F 10.4 °F 73% 30.08 in 10.0 mi WNW 11.5 mph - N/A   Mostly Cloudy
11:53 PM 15.8 °F 4.2 °F 10.4 °F 79% 30.09 in 10.0 mi WNW 9.2 mph - N/A   Mostly Cloudy